ONEWEB-0616 (55157 NORAD) Tracking and Keplerian Element Data

This shows tracking and keplerian element data for the satellite.

Feedback or suggestion? Click here.




ElementValue
Catalog55157
NameONEWEB-0616
Epoch Orbit1119
Epoch Day84.89167288
Epoch Year2023
RAAN253.6964
Inclination86.6203
Eccentricity0.0010561
Argument of Perigee327.6037
Mean Anonmoly32.4527
Mean Motion14.65692292
Decay Rate-3.56E-05
L11 55157U 23004T 23084.89167288 -.00003560 00000+0 -65928-3 0 9996
L22 55157 86.6203 253.6964 0010561 327.6037 32.4527 14.65692292 11197



Live tracking and technical data element details for ONEWEB-0616 (NORAD 55157). ONEWEB-0616 can be tracked NOW for your location showing map with azimuth and elevation plus other details from your city location.







IsCatalogInMostPopularTable: catalog: 55157, numindb: 12
Update: records affected: 1



GetName: 55157 ONEWEB-0616

Hit Count: updated at: Mon, 27 Mar 2023 07:29:42 GMT